[ hide orbit diagram ]
For accurate long-term ephemerides, please instead use our Horizons system.This orbit viewer was implemented using two-body methods, and hence should not be used for determining accurate long-term trajectories (over several years or decades) or planetary encounter circumstances.
Orbital Elements at Epoch 2459200.5 (2020-Dec-17.0) TDB
Reference: JPL 22 (heliocentric ecliptic J2000)
Element | Value | Uncertainty (1-sigma) | Units |
e | .1694903028339592 | 5.0435e-08 | |
a | 3.097617115684098 | 1.9241e-08 | au |
q | 2.572601052683145 | 1.5664e-07 | au |
i | 2.107892132316077 | 4.0736e-06 | deg |
node | 104.2531141411675 | 0.00014603 | deg |
peri | 105.9034795634446 | 0.00014647 | deg |
M | 233.0358135131992 | 1.4334e-05 | deg |
tp | 2459902.793685140170 (2022-Nov-19.29368514) | 8.2983e-05 | TDB |
period | 1991.315296433967 5.45 | 1.8554e-05 5.08e-08 | d yr |
n | .1807850322069466 | 1.6844e-09 | deg/d |
Q | 3.622633178685051 | 2.2502e-08 | au |
|
| | Orbit Determination Parameters
Additional Information
|
[ show covariance matrix ]
Physical Parameter Table
Parameter |
Symbol |
Value |
Units |
Sigma |
Reference |
Notes |
absolute magnitude |
H |
15.1 |
|
n/a |
MPO412371 |
|
|
26165 (1995 FJ6) Discovered 1995-Mar-23 by Spacewatch at Kitt Peak |
Reference: 20010705/Numbers.arc | Last Updated: 2004-04-19 |
|
[ hide close-approach data ]
Close-Approach Data ...sorted by Date/Time (TDB)
|
Date/Time (TDB) |
Time Uncertainty (days_HH:MM) |
Body |
Nominal Distance (au) |
Minimum Distance (au) |
Maximum Distance (au) |
V-relative (km/s) |
V-infinity (km/s) |
JD (TDB) |
Time Uncertainty (minutes) |
Semi-major axis (km) |
Semi-minor axis (km) |
range-LOV angle (deg) |
N-sigma |
BP |
Orbit Ref. |
Reference |
Modified |
1905-Nov-17 22:48 |
00:04 |
Jupiter |
1.57994271862569 |
1.57994026611401 |
1.57994517111528 |
1.41984692721559 |
0.971465915352069 |
2417167.449968725 |
3.51705832764539 |
723.529339604564 |
123.509136210463 |
4.53032543317255 |
417615.050148764 |
T |
22 |
CATAB v2.0f-lin.ifort 2021-Feb-24 03:18:01 |
2021-Feb-24 03:18 |
1915-Sep-29 00:15 |
00:03 |
Jupiter |
1.47408159430875 |
1.47407991877243 |
1.47408327003552 |
1.12838379340433 |
0.352177965198206 |
2420769.510209055 |
3.18309274720173 |
12653.0799779015 |
698.358322528283 |
9.94528603558637 |
1471472.32565777 |
T |
22 |
CATAB v2.0f-lin.ifort 2021-Feb-24 03:18:01 |
2021-Feb-24 03:18 |
1976-Oct-22 17:27 |
00:01 |
Jupiter |
1.48218968555129 |
1.48218872101184 |
1.48219065017902 |
1.09393510878177 |
0.2318620095924 |
2443074.227264851 |
1.32154518403811 |
26023.4874216157 |
1091.9075534809 |
-5.01272265114269 |
1720962.01287934 |
T |
22 |
CATAB v2.0f-lin.ifort 2021-Feb-24 03:18:01 |
2021-Feb-24 03:18 |
1986-Aug-31 18:06 |
< 00:01 |
Jupiter |
1.57566168162719 |
1.57566093673944 |
1.5756624265153 |
1.49145612010299 |
1.07205824970141 |
2446674.254109954 |
0.977734544875432 |
238.852848414354 |
93.0755165052456 |
38.8348494759196 |
1641041.67250954 |
T |
22 |
CATAB v2.0f-lin.ifort 2021-Feb-24 03:18:01 |
2021-Feb-24 03:18 |
2047-Oct-04 04:16 |
00:01 |
Jupiter |
1.40905913439652 |
1.40905859191942 |
1.40905967687367 |
0.877174694277909 |
n/a |
2468987.678084958 |
1.08032209860494 |
60.2527673171698 |
26.3301055263757 |
-83.4266391825694 |
7960477.90519746 |
F |
22 |
CATAB v2.0f-lin.ifort 2021-Feb-24 03:18:01 |
2021-Feb-24 03:18 |
2057-Aug-13 20:37 |
00:01 |
Jupiter |
1.67802097342393 |
1.67801989620752 |
1.67802205064005 |
1.90054402894352 |
1.61323222971251 |
2472589.359283461 |
1.48176806501945 |
109.26913767622 |
27.2169465244741 |
72.8826225255762 |
1626289.71774048 |
T |
22 |
CATAB v2.0f-lin.ifort 2021-Feb-24 03:18:01 |
2021-Feb-24 03:18 |
2118-Oct-02 23:15 |
00:03 |
Jupiter |
1.37077811782132 |
1.3707773511455 |
1.37077888449929 |
0.774420377488708 |
n/a |
2494918.468676946 |
3.37222060938905 |
127.881516842189 |
27.2973240719477 |
-77.628543203126 |
7343265.23118235 |
F |
22 |
CATAB v2.0f-lin.ifort 2021-Feb-24 03:18:01 |
2021-Feb-24 03:18 |
2128-Aug-13 05:47 |
00:04 |
Jupiter |
1.76650378849314 |
1.76650098480228 |
1.7665065921836 |
2.29253308777419 |
2.0728545850835 |
2498520.740745923 |
3.83396456372246 |
175.551127378132 |
9.96482240620232 |
-82.3506963988962 |
1426640.26098618 |
T |
22 |
CATAB v2.0f-lin.ifort 2021-Feb-24 03:18:01 |
2021-Feb-24 03:18 |
2179-Nov-28 05:19 |
00:05 |
Jupiter |
1.92787935432335 |
1.9278753736371 |
1.927883335005 |
2.69413207702063 |
2.52579464736932 |
2517254.721207123 |
5.39426100239428 |
149.964688127723 |
35.7571633245607 |
-43.8834460451331 |
761560.673794573 |
T |
22 |
CATAB v2.0f-lin.ifort 2021-Feb-24 03:18:01 |
2021-Feb-24 03:18 |
2189-Oct-13 21:53 |
00:06 |
Jupiter |
1.35389118586452 |
1.35389060521968 |
1.35389176651421 |
0.737092227221414 |
n/a |
2520862.411922892 |
5.94560212248907 |
239.353033528516 |
24.3972608164619 |
-86.2451773784805 |
8281146.63546045 |
F |
22 |
CATAB v2.0f-lin.ifort 2021-Feb-24 03:18:01 |
2021-Feb-24 03:18 |
2199-Aug-25 22:47 |
00:06 |
Jupiter |
1.84740373603777 |
1.84739893170529 |
1.84740854037035 |
2.66550942275429 |
2.48755976394269 |
2524465.449069849 |
6.44222389625938 |
264.607423886161 |
21.5443013561194 |
-63.2456426187915 |
1360180.34224971 |
T |
22 |
CATAB v2.0f-lin.ifort 2021-Feb-24 03:18:01 |
2021-Feb-24 03:18 |
|
Alternate Designations
1995 FJ6 = 1998 XP5 = 2001 KA4 |
|
|